FW3157 Weather Reports


time (UTC)temp
F
wind
direction
speed
knots
gust
knots
rain 1hr
in
rain 24hr
in
rain mn
in
humidity
%
barometer
mb
20260504204546 60 103 0.9 1.7 0.00 0.00 0.00 53 1017.1
20260504204044 60 103 0.9 1.7 0.00 0.00 0.00 53 1017.0
20260504203543 60 103 0.0 0.9 0.00 0.00 0.00 53 1017.0
20260504203042 60 103 0.0 0.9 0.00 0.00 0.00 53 1016.9
20260504202542 60 103 0.0 0.9 0.00 0.00 0.00 53 1016.9
20260504202042 60 103 0.0 0.9 0.00 0.00 0.00 53 1016.9
20260504201542 60 103 0.9 2.6 0.00 0.00 0.00 53 1017.0
20260504201040 61 103 0.9 2.6 0.00 0.00 0.00 52 1016.9
20260504201021 61 103 0.0 1.7 0.00 0.00 0.00 52 1017.0
20260504200037 61 103 0.0 0.0 0.00 0.00 0.00 52 1016.9
20260504195536 62 103 0.0 0.0 0.00 0.00 0.00 52 1016.9
20260504195028 62 103 0.0 0.0 0.00 0.00 0.00 52 1016.7
20260504194521 62 103 0.0 0.0 0.00 0.00 0.00 52 1016.7
20260504194016 62 103 0.0 0.0 0.00 0.00 0.00 52 1016.7
20260504193733 62 103 0.0 0.0 0.00 0.00 0.00 52 1016.7
20260504193007 62 103 0.0 0.0 0.00 0.00 0.00 50 1016.6
20260504192722 62 103 0.0 0.0 0.00 0.00 0.00 51 1016.6
20260504192152 62 103 0.0 0.9 0.00 0.00 0.00 52 1016.6
20260504192036 62 103 0.0 0.9 0.00 0.00 0.00 52 1016.6
20260504190939 62 103 0.0 0.9 0.00 0.00 0.00 52 1016.6
20260504190434 63 103 0.0 1.7 0.00 0.00 0.00 52 1016.6
20260504190148 63 103 0.0 1.7 0.00 0.00 0.00 51 1016.6
20260504185422 64 103 0.0 1.7 0.00 0.00 0.00 49 1016.5
20260504184920 64 103 0.9 2.6 0.00 0.00 0.00 47 1016.5
20260504184410 64 103 1.7 3.5 0.00 0.00 0.00 46 1016.5
20260504183904 64 103 2.6 5.2 0.00 0.00 0.00 45 1016.4
20260504183358 64 104 2.6 5.2 0.00 0.00 0.00 44 1016.3
20260504182852 64 107 3.5 4.3 0.00 0.00 0.00 44 1016.3
20260504182612 64 107 2.6 5.2 0.00 0.00 0.00 44 1016.3
20260504181839 64 105 2.6 5.2 0.00 0.00 0.00 45 1016.2
20260504181334 64 123 3.5 6.1 0.00 0.00 0.00 44 1016.2
20260504180829 64 113 2.6 6.1 0.00 0.00 0.00 44 1016.2
20260504180321 64 108 1.7 4.3 0.00 0.00 0.00 45 1016.2
20260504175816 64 104 2.6 4.3 0.00 0.00 0.00 45 1016.2
20260504175309 64 89 1.7 4.3 0.00 0.00 0.00 46 1016.2
20260504174803 64 59 1.7 4.3 0.00 0.00 0.00 46 1016.2
20260504174257 65 98 2.6 6.1 0.00 0.00 0.00 48 1016.1
20260504173752 65 101 1.7 6.1 0.00 0.00 0.00 48 1016.1
20260504173246 65 111 2.6 5.2 0.00 0.00 0.00 49 1016.1
20260504172740 65 116 3.5 7.0 0.00 0.00 0.00 48 1016.0
20260504172234 66 93 2.6 7.0 0.00 0.00 0.00 47 1016.0
20260504171727 66 111 1.7 7.0 0.00 0.00 0.00 45 1016.0
20260504171420 67 122 1.7 6.1 0.00 0.00 0.00 44 1016.1
20260504171308 67 95 0.9 3.5 0.00 0.00 0.00 44 1016.0
20260504170430 67 108 2.6 6.1 0.00 0.00 0.00 44 1016.0
20260504150557 69 210 2.6 6.1 0.00 0.00 0.00 43 1016.5
20260504141040 70 206 3.5 8.7 0.00 0.00 0.00 37 1016.6
20260504140540 69 189 4.3 9.6 0.00 0.00 0.00 34 1016.9
20260504130536 69 209 3.5 7.8 0.00 0.00 0.00 37 1017.4
20260504130258 68 224 4.3 8.7 0.00 0.00 0.00 40 1017.5
20260504110455 67 230 2.6 7.8 0.00 0.00 0.00 38 1018.7
20260504100436 65 175 1.7 5.2 0.00 0.00 0.00 41 1019.2
20260504081731 59 271 2.6 5.2 0.00 0.00 0.00 44 1020.2
20260504081224 59 282 2.6 5.2 0.00 0.00 0.00 43 1020.3
20260504080719 59 251 1.7 5.2 0.00 0.00 0.00 43 1020.2
20260504080213 59 281 2.6 6.1 0.00 0.00 0.00 43 1020.2
20260504050513 54 250 0.9 8.7 0.00 0.02 0.00 61 1020.2
20260504050007 55 99 0.9 0.9 0.00 0.02 0.00 49 1020.1
20260504045726 55 99 0.0 0.9 0.00 0.02 0.00 49 1020.1
20260504044959 55 99 0.0 0.9 0.00 0.02 0.00 50 1020.0
20260504044459 55 99 0.0 0.9 0.00 0.02 0.00 52 1020.0
20260504043957 54 99 0.0 1.7 0.00 0.02 0.00 55 1020.0
20260504043457 53 99 0.9 1.7 0.00 0.02 0.00 55 1019.9
20260504043004 53 99 0.9 1.7 0.00 0.03 0.00 56 1019.9
20260504042455 53 46 0.0 0.9 0.00 0.03 0.00 57 1020.0
20260504041955 53 46 0.0 0.9 0.00 0.03 0.00 59 1020.0
20260504041455 52 46 0.0 0.9 0.00 0.03 0.00 60 1020.0
20260504040955 52 46 0.0 0.9 0.00 0.03 0.00 61 1020.0
20260504040455 51 46 0.0 0.0 0.00 0.03 0.00 63 1019.9
20260504035954 51 46 0.0 0.0 0.00 0.03 0.00 65 1019.9
20260504035455 51 46 0.0 0.0 0.00 0.03 0.00 65 1019.8
20260504035216 50 46 0.0 0.9 0.00 0.03 0.00 66 1019.8
20260504034450 50 46 0.0 0.9 0.00 0.03 0.00 66 1019.7
20260504033951 50 46 0.0 0.9 0.00 0.03 0.00 66 1019.7
20260504033450 50 46 0.0 0.9 0.00 0.03 0.00 66 1019.6
20260504033217 50 46 0.0 0.9 0.00 0.03 0.00 66 1019.6
20260504032709 50 46 0.0 0.9 0.00 0.03 0.00 65 1019.6
20260504031950 51 46 0.0 0.9 0.00 0.03 0.00 66 1019.5
20260504031450 51 46 0.0 0.9 0.00 0.03 0.00 66 1019.5
20260504030950 51 46 0.9 2.6 0.00 0.03 0.00 66 1019.5
20260504030450 51 46 0.9 2.6 0.00 0.03 0.00 66 1019.5
20260504025951 51 296 0.9 2.6 0.00 0.03 0.00 65 1019.5
20260504025709 51 296 0.9 2.6 0.00 0.03 0.00 65 1019.5
20260504024951 51 296 1.7 3.5 0.00 0.03 0.00 66 1019.5
20260504024451 51 296 1.7 3.5 0.00 0.03 0.00 68 1019.6
20260504023951 51 279 0.9 3.5 0.00 0.03 0.00 70 1019.6
20260504023450 51 296 1.7 4.3 0.00 0.03 0.00 72 1019.7
20260504022951 51 308 1.7 4.3 0.00 0.03 0.00 73 1019.6
20260504022711 51 262 1.7 2.6 0.00 0.03 0.00 73 1019.6
20260504021948 51 277 1.7 2.6 0.00 0.03 0.00 73 1019.5
20260504021442 51 263 1.7 2.6 0.00 0.03 0.00 72 1019.6
20260504020935 51 308 1.7 4.3 0.00 0.03 0.00 71 1019.5
20260504020917 51 308 0.9 4.3 0.00 0.03 0.00 67 1019.5
20260504015924 51 15 1.7 3.5 0.00 0.03 0.00 62 1019.4
20260504015417 51 291 1.7 5.2 0.00 0.03 0.00 59 1019.5
20260504014912 51 304 0.9 5.2 0.00 0.03 0.00 58 1019.5
20260504014406 51 83 0.0 2.6 0.00 0.03 0.00 59 1019.4
20260504013900 51 83 0.9 2.6 0.00 0.03 0.00 60 1019.3
20260504013613 51 91 1.7 2.6 0.00 0.03 0.00 61 1019.3
20260504013114 51 91 0.9 2.6 0.00 0.03 0.00 61 1019.3
20260504012344 51 99 0.9 1.7 0.00 0.03 0.00 62 1019.3
20260504011835 52 99 0.9 3.5 0.00 0.03 0.00 61 1019.2
20260504011337 52 99 1.7 3.5 0.00 0.03 0.00 60 1019.2
20260504011102 52 99 1.7 3.5 0.00 0.03 0.00 60 1019.1
20260504010332 52 91 0.9 3.5 0.00 0.03 0.00 60 1019.1
20260504005830 51 101 0.9 2.6 0.00 0.03 0.00 61 1019.1
20260504005328 52 101 1.7 2.6 0.00 0.03 0.00 61 1019.1
20260504004829 51 95 1.7 3.5 0.00 0.03 0.00 61 1019.1
20260504004328 51 102 2.6 4.3 0.00 0.03 0.00 61 1019.1
20260504003826 52 103 2.6 4.3 0.00 0.03 0.00 61 1019.1
20260504003324 53 105 0.9 4.3 0.00 0.03 0.00 61 1019.0
20260504002824 53 107 0.0 0.0 0.00 0.03 0.00 62 1019.0
20260504002544 53 107 0.0 0.9 0.00 0.03 0.00 62 1019.0
20260504001822 53 107 0.0 1.7 0.00 0.03 0.00 63 1019.0
20260504001322 53 107 0.9 1.7 0.00 0.03 0.00 63 1019.1
20260504000821 53 107 0.9 1.7 0.00 0.03 0.00 62 1019.1
20260504000540 53 107 0.9 1.7 0.00 0.03 0.00 60 1019.1
20260503235820 53 91 0.0 1.7 0.00 0.03 0.00 57 1019.1
20260503235319 53 91 0.0 1.7 0.00 0.03 0.00 57 1019.1
20260503234821 53 91 0.0 1.7 0.00 0.03 0.00 56 1019.1
20260503234314 53 91 0.9 1.7 0.00 0.03 0.00 55 1019.1
20260503233818 53 91 0.9 1.7 0.00 0.03 0.00 56 1019.1
20260503233306 53 91 0.9 3.5 0.00 0.03 0.00 57 1019.1
20260503232759 53 91 1.7 3.5 0.00 0.03 0.00 56 1019.1
20260503232254 54 105 0.0 3.5 0.00 0.03 0.00 57 1019.2
20260503231747 54 297 0.0 0.0 0.00 0.03 0.00 58 1019.2
20260503231500 54 297 0.0 0.0 0.00 0.03 0.00 58 1019.2
20260503230736 54 297 0.0 0.0 0.00 0.03 0.00 58 1019.2
20260503230231 54 297 0.0 0.0 0.00 0.03 0.00 57 1019.2
20260503230201 54 297 0.0 0.9 0.00 0.03 0.00 57 1019.2
20260503225219 55 297 0.0 2.6 0.00 0.03 0.00 56 1019.2
20260503224711 55 297 0.9 2.6 0.00 0.03 0.00 56 1019.1
20260503224425 55 99 0.9 1.7 0.00 0.03 0.00 53 1019.1
20260503223659 55 99 0.9 1.7 0.00 0.03 0.00 51 1019.1
20260503223154 55 99 0.0 0.9 0.00 0.03 0.00 50 1019.0
20260503222648 55 99 0.0 0.9 0.00 0.03 0.00 49 1019.0
20260503222406 55 99 0.0 0.9 0.00 0.03 0.00 49 1019.0
20260503221636 55 99 0.9 1.7 0.00 0.03 0.00 48 1019.0
20260503221129 55 99 0.9 2.6 0.00 0.03 0.00 48 1018.9
20260503220624 55 99 0.9 2.6 0.00 0.03 0.00 48 1018.9
20260503220117 55 128 0.0 1.7 0.00 0.03 0.00 49 1019.0
20260503215612 55 137 0.0 1.7 0.00 0.03 0.00 49 1019.0
20260503215106 55 137 0.0 1.7 0.00 0.03 0.00 49 1018.9
20260503214600 55 137 0.0 1.7 0.00 0.03 0.00 48 1019.0
20260503214054 56 137 0.9 2.6 0.00 0.03 0.00 48 1019.0
20260503213548 56 137 0.9 2.6 0.00 0.03 0.00 47 1018.9
20260503213041 56 99 1.7 3.5 0.00 0.03 0.00 46 1018.8
20260503212535 56 116 0.9 4.3 0.00 0.03 0.00 46 1018.8
20260503212029 56 117 0.9 4.3 0.00 0.03 0.00 46 1018.8
20260503212015 56 117 0.9 3.5 0.00 0.03 0.00 47 1018.8
20260503211017 56 130 0.9 3.5 0.00 0.03 0.00 48 1018.8
20260503210512 56 108 1.7 3.5 0.00 0.03 0.00 48 1018.8
20260503210225 56 109 2.6 6.1 0.00 0.03 0.00 48 1018.8
20260503205500 56 101 2.6 6.1 0.00 0.03 0.03 48 1018.8
20260503204954 56 96 2.6 6.1 0.00 0.03 0.03 47 1018.8